Temperature
8 6 5 6 6 8 7 7 7 6 6 6 5 4 3 3 2 2 1 1 1 2 2 2 2 2 2 2 3 3 3 3 3 3 3 4 4 4 4 4 4 5 5 5
6 6 6 7 7 8 7 7 6 6 6 6 4 4 3 3 2 2 1 1 1 1 1 1 2 2 2 2 2 2 2 2 2 2 2 2 3 3 3 3 4 4 4 4
6 6 7 7 7 7 7 6 6 6 5 5 5 3 2 2 2 2 1 1 1 1 1 1 1 1 1 1 1 1 1 1 1 1 1 2 2 3 3 3 3 3 3 4
6 6 7 6 6 6 6 6 6 5 4 4 4 3 2 1 1 1 1 1 0 0 0 1 1 1 0 1 1 1 1 1 1 1 1 1 1 1 2 2 2 2 2 3
5 5 6 6 6 6 5 6 5 5 4 3 3 3 2 1 1 0 -0 0 0 0 0 0 0 0 0 0 0 0 -0 0 -0 -0 0 0 0 0 1 1 1 1 2 2
5 5 5 5 5 5 5 4 4 2 2 3 3 2 2 1 1 0 -0 0 -0 -0 -0 -0 -0 -0 -0 -0 -1 -0 -0 -1 -1 -1 -0 -0 -0 -0 0 0 0 0 1 1
5 5 5 5 5 5 4 3 3 3 2 3 3 2 2 1 1 0 -0 -0 -0 -0 -1 -1 -1 -1 -1 -1 -1 -1 -1 -1 -1 -1 -1 -1 -1 -1 -1 -1 -1 -1 -0 0
4 4 4 4 4 3 3 3 4 4 3 2 2 1 1 0 0 1 0 0 -0 -1 -1 -1 -1 -1 -1 -1 -1 -2 -2 -2 -2 -2 -2 -1 -1 -2 -1 -1 -1 -1 -1 -1
4 4 4 4 4 4 3 2 2 2 1 1 1 0 0 -0 -0 -1 -1 -1 -1 -1 -1 -1 -1 -2 -2 -2 -2 -2 -2 -2 -2 -2 -2 -2 -2 -2 -2 -2 -2 -2 -2 -2
3 3 3 3 4 3 3 2 1 1 2 2 2 1 1 -0 -1 -2 -2 -2 -2 -2 -2 -2 -2 -2 -2 -2 -2 -3 -3 -3 -3 -3 -3 -3 -3 -3 -3 -3 -3 -3 -3 -3
3 3 2 3 2 2 2 2 1 0 0 1 1 2 1 -0 -1 -2 -2 -2 -2 -2 -2 -2 -2 -2 -3 -3 -3 -3 -3 -3 -3 -3 -4 -4 -3 -3 -3 -3 -3 -3 -3 -3
2 1 1 2 2 2 2 1 1 1 0 -1 -1 1 -0 -1 -1 -1 -2 -1 -1 -2 -2 -2 -3 -3 -3 -3 -3 -4 -4 -4 -4 -4 -4 -4 -4 -4 -4 -4 -4 -4 -4 -4
2 1 2 3 2 1 1 1 0 0 -0 -1 -1 0 -1 -2 -2 -2 -2 -2 -2 -2 -2 -3 -3 -3 -4 -4 -4 -4 -4 -4 -4 -5 -5 -5 -5 -5 -4 -4 -4 -4 -4 -4
2 0 1 3 3 1 1 1 0 -0 -1 -1 -1 -0 -2 -2 -3 -2 -2 -2 -2 -3 -3 -3 -3 -4 -4 -4 -4 -4 -5 -5 -5 -5 -5 -5 -5 -5 -5 -5 -5 -5 -5 -5
1 0 0 0 1 1 1 1 0 -0 -1 -1 -1 -2 -1 -2 -3 -2 -2 -2 -3 -3 -3 -4 -4 -4 -5 -5 -5 -5 -5 -5 -5 -5 -6 -6 -6 -6 -6 -5 -5 -5 -6 -6
-1 -0 -0 -0 0 -0 -0 0 -0 -0 -1 -1 -2 -2 -2 -2 -2 -3 -2 -3 -3 -3 -4 -4 -4 -5 -5 -5 -5 -5 -6 -6 -6 -6 -6 -6 -6 -6 -6 -6 -6 -6 -6 -6
-2 -1 -1 -1 -1 -0 -1 -1 -1 -2 -2 -2 -2 -2 -3 -4 -4 -3 -3 -3 -3 -4 -4 -5 -5 -5 -6 -6 -6 -6 -6 -6 -6 -6 -7 -7 -7 -7 -7 -7 -7 -7 -7 -7
-2 -2 -2 -2 -2 -1 -0 -2 -2 -3 -3 -4 -4 -4 -4 -4 -3 -3 -3 -4 -4 -4 -4 -5 -5 -6 -6 -6 -6 -7 -7 -7 -7 -7 -7 -7 -7 -7 -7 -7 -7 -7 -7 -7
-2 -2 -3 -3 -3 -2 -2 -2 -3 -3 -4 -5 -5 -5 -4 -4 -4 -4 -4 -4 -4 -5 -5 -5 -6 -6 -6 -7 -7 -7 -7 -7 -7 -7 -7 -8 -8 -8 -8 -8 -8 -8 -8 -8
-3 -3 -3 -3 -2 -2 -1 -3 -3 -3 -4 -4 -4 -5 -5 -5 -6 -5 -4 -5 -5 -5 -6 -6 -6 -7 -7 -7 -7 -8 -8 -8 -8 -8 -8 -8 -8 -8 -8 -8 -8 -8 -8 -8
-3 -4 -4 -4 -3 -3 -4 -4 -3 -3 -3 -3 -3 -4 -5 -6 -5 -4 -5 -5 -6 -6 -6 -7 -7 -7 -7 -8 -8 -8 -8 -8 -8 -8 -8 -8 -8 -8 -8 -8 -8 -9 -9 -9
-4 -4 -4 -4 -4 -3 -4 -5 -4 -4 -3 -3 -3 -3 -4 -4 -5 -5 -6 -6 -6 -7 -7 -7 -7 -8 -8 -8 -8 -8 -8 -9 -9 -9 -9 -9 -9 -9 -9 -9 -9 -9 -9 -9
-4 -4 -4 -4 -3 -4 -4 -4 -3 -3 -3 -3 -3 -4 -4 -5 -5 -6 -6 -7 -7 -7 -7 -8 -8 -8 -8 -9 -9 -9 -9 -9 -9 -9 -9 -9 -9 -9 -9 -9 -9 -9 -10 -10
-5 -5 -5 -6 -5 -5 -4 -3 -3 -3 -3 -4 -4 -4 -5 -5 -6 -7 -7 -7 -8 -8 -8 -8 -8 -9 -9 -9 -9 -9 -10 -10 -10 -10 -10 -10 -10 -10 -10 -10 -10 -10 -10 -10
-5 -6 -6 -6 -6 -5 -4 -4 -4 -4 -4 -5 -5 -5 -6 -6 -7 -7 -8 -8 -8 -8 -8 -9 -9 -9 -9 -9 -10 -10 -10 -10 -10 -10 -10 -10 -10 -10 -10 -10 -10 -11 -10 -11
-6 -6 -6 -5 -4 -5 -4 -4 -4 -5 -5 -5 -6 -6 -7 -7 -8 -8 -8 -8 -9 -9 -9 -9 -9 -10 -10 -10 -10 -10 -10 -11 -11 -11 -11 -11 -11 -11 -11 -11 -11 -11 -11 -11
Wind_Speed
3 5 2 4 4 4 4 4 3 3 2 2 4 5 5 5 5 5 4 4 3 2 2 3 4 4 5 5 6 6 7 7 6 5 4 4 4 4 6 8 10 10 10 9
5 1 3 2 1 1 1 2 1 2 1 2 2 3 3 5 6 7 7 6 4 3 2 3 4 4 5 5 6 6 7 7 6 5 4 3 3 3 4 7 9 11 10 9
4 3 2 1 1 1 1 3 3 3 2 2 1 3 2 2 3 4 5 5 4 4 3 1 2 3 4 4 5 5 6 6 7 6 5 5 3 3 3 5 6 10 10 10
1 2 1 1 0 2 3 2 2 2 1 3 2 4 5 3 2 4 4 4 4 3 3 2 1 2 2 3 4 4 5 5 6 6 5 5 4 4 5 5 5 8 10 9
1 1 1 1 1 1 3 1 0 1 2 1 1 3 6 2 4 6 6 5 5 4 4 3 2 0 1 2 3 4 4 5 5 5 4 4 4 4 4 4 5 6 8 9
1 0 1 2 1 1 1 4 5 5 4 2 4 5 6 4 6 5 5 6 4 4 3 2 1 0 1 2 3 3 4 4 4 4 4 3 4 5 5 6 6 6 5 6
2 2 1 1 2 3 4 4 3 4 2 6 2 4 7 4 3 5 6 6 5 4 3 2 1 1 1 2 3 3 3 4 4 4 4 4 4 4 4 5 5 6 5 5
2 4 2 0 2 3 2 4 5 4 5 5 2 5 5 2 1 2 3 4 4 3 3 2 2 2 2 2 3 3 3 4 4 4 4 4 4 3 4 4 5 5 5 5
4 4 1 0 1 4 4 3 4 4 1 3 5 5 5 1 1 2 3 3 3 3 2 2 2 2 2 2 3 3 3 4 4 4 4 5 4 4 5 5 5 5 6 7
5 3 2 1 2 2 2 5 4 4 2 5 6 5 5 5 5 3 3 3 3 2 2 2 2 2 2 2 2 3 3 3 4 4 4 5 5 5 5 5 5 6 7 8
3 3 1 1 4 5 3 3 3 3 3 4 4 6 4 7 7 7 6 5 5 4 4 3 2 2 2 2 3 3 3 4 4 4 5 5 5 5 6 5 6 7 7 8
3 4 3 5 3 2 4 5 6 4 5 4 3 7 2 3 4 5 5 4 4 4 3 3 2 2 2 3 3 4 4 4 5 5 5 5 6 5 6 6 7 7 8 8
3 4 0 3 2 1 2 4 4 4 3 5 5 7 2 2 1 1 3 3 3 3 2 2 2 2 3 4 4 4 5 5 5 5 5 6 6 6 7 7 7 7 8 8
3 4 6 7 5 5 5 5 5 6 5 6 9 9 5 3 3 3 3 4 4 3 3 3 3 3 4 4 4 5 5 5 5 5 5 6 7 7 7 7 7 7 7 7
4 3 5 6 5 4 6 8 8 10 9 9 9 8 9 7 6 5 4 3 3 3 3 3 3 4 4 4 5 5 5 5 5 6 6 7 7 7 6 7 7 7 7 8
3 3 1 4 3 4 6 9 10 10 8 9 8 9 6 3 2 3 3 3 4 4 4 4 4 4 5 5 5 6 5 6 5 6 7 7 7 7 7 7 7 7 8 8
3 4 2 4 3 4 7 8 8 5 5 6 9 8 2 2 3 3 3 3 4 4 4 4 4 4 5 5 5 6 6 6 6 6 7 7 7 7 7 8 8 8 8 8
6 5 3 2 2 6 6 1 4 5 4 5 4 3 3 3 2 2 3 3 3 4 4 4 4 5 5 5 5 6 5 6 6 6 7 7 8 8 8 7 8 8 8 8
3 5 3 2 3 8 6 2 3 4 5 4 6 4 2 1 2 3 2 2 2 3 3 3 4 4 5 5 6 5 6 6 6 7 8 8 8 9 8 8 8 8 8 8
3 3 4 4 4 7 5 1 1 3 4 3 5 5 3 2 1 4 2 1 2 2 2 3 3 4 5 5 5 5 6 6 7 8 9 8 9 9 8 9 8 7 7 8
2 2 5 6 6 8 5 2 3 3 6 2 4 4 4 5 5 3 1 2 2 2 3 3 3 4 5 5 5 6 6 7 8 9 9 9 9 9 8 7 7 7 8 8
8 6 6 5 6 8 3 5 6 6 1 2 2 3 4 4 2 2 2 2 2 3 3 3 4 5 5 5 5 6 8 8 8 8 9 9 9 8 7 7 7 7 7 7
7 7 6 8 7 2 4 5 3 3 3 2 2 2 3 3 3 2 2 3 3 3 4 3 4 5 6 5 5 6 8 8 8 8 9 9 9 8 8 7 7 7 6 6
4 2 3 4 5 3 3 3 1 2 3 2 2 2 3 3 3 2 3 3 3 4 4 4 4 5 6 6 6 6 8 8 8 8 9 8 8 8 7 6 6 6 5 6
5 5 4 4 4 2 3 4 4 2 2 1 1 1 2 2 2 2 3 3 4 4 4 4 4 6 7 7 7 8 7 7 8 8 8 8 8 8 7 6 5 6 6 7
4 6 6 7 6 5 4 2 3 3 2 2 1 1 0 1 2 2 3 3 3 4 4 5 5 6 7 7 7 7 7 7 7 8 8 7 7 7 7 7 8 10 10 13
Wind_Direction
49 72 130 213 204 187 173 178 222 240 208 180 213 219 206 177 153 152 156 155 155 150 91 59 49 36 31 22 16 14 11 3 7 2 356 351 347 345 356 2 3 2 359 357
54 13 246 233 189 171 151 168 227 301 313 199 231 255 214 190 184 180 177 175 168 134 76 53 45 35 29 19 11 10 7 2 2 356 342 328 312 316 342 351 358 0 358 354
147 239 286 114 88 125 279 194 207 223 333 9 356 299 228 202 172 162 170 173 168 158 152 117 48 30 24 16 6 5 3 3 1 359 358 352 340 329 344 345 345 350 354 352
111 314 14 95 182 167 237 235 198 174 134 265 173 271 255 205 190 197 197 185 181 170 159 153 100 35 13 357 354 356 357 2 1 6 11 8 356 339 329 327 327 337 346 348
236 327 61 156 260 187 211 294 179 166 152 309 248 214 274 184 223 226 216 203 193 183 174 173 171 183 355 352 348 347 352 358 358 5 9 3 348 324 322 327 331 332 335 343
199 340 132 195 319 122 124 52 51 53 78 274 223 191 264 224 219 215 208 204 190 177 176 173 173 15 358 352 346 345 349 347 348 357 359 356 341 329 332 334 334 330 325 331
340 324 342 82 71 29 65 82 31 350 338 251 224 204 249 254 223 195 195 198 186 174 169 176 186 267 312 327 327 332 338 337 338 345 345 338 330 322 318 320 320 320 323 322
193 273 253 180 161 172 178 142 165 216 239 277 296 232 252 280 357 139 158 165 165 170 176 194 212 226 259 283 302 314 321 326 329 332 327 325 321 313 304 306 307 308 308 307
185 237 341 15 69 143 148 181 165 142 230 274 270 278 290 164 70 95 121 143 175 191 197 212 232 240 251 268 280 286 305 318 321 321 319 321 319 311 304 306 309 306 307 311
160 213 265 320 59 22 138 145 111 138 203 261 276 261 239 220 220 212 200 201 208 209 219 235 252 263 260 260 279 294 296 298 303 312 315 319 313 308 304 304 304 304 306 308
140 168 258 301 203 200 159 158 150 151 178 194 263 267 227 207 202 204 215 213 208 217 226 240 259 271 271 287 289 292 295 301 305 307 307 307 306 305 303 297 298 301 301 305
144 136 228 247 254 218 189 186 160 177 228 201 219 267 297 211 202 196 211 217 221 227 234 241 257 288 297 295 293 290 290 293 295 297 303 303 303 300 301 297 298 301 300 302
138 129 7 325 316 306 224 208 187 158 154 190 205 257 340 61 59 210 209 224 234 233 239 256 274 280 284 288 288 288 290 290 294 297 301 302 301 298 298 296 295 299 300 301
115 160 194 218 232 190 222 224 189 166 197 224 226 245 267 258 246 252 245 237 236 240 244 259 279 284 289 293 296 295 294 294 298 301 301 299 297 293 291 292 295 297 299 298
116 206 236 258 261 230 232 232 208 208 212 219 240 239 253 236 226 234 238 241 248 263 265 261 271 285 297 303 304 303 299 299 301 301 300 297 295 291 291 294 296 297 297 298
128 190 248 284 271 254 260 251 234 232 231 238 256 266 259 241 213 237 240 237 251 265 270 276 287 296 297 296 299 303 301 301 302 298 298 300 300 295 293 296 297 298 297 297
167 160 181 267 320 341 269 242 215 210 212 204 232 244 238 226 232 237 245 240 251 268 280 285 289 288 289 289 292 293 294 301 303 300 302 304 304 300 294 297 300 298 297 297
161 159 177 257 17 248 248 216 183 198 243 222 227 243 224 219 241 260 226 216 254 276 280 284 286 293 296 295 296 293 300 304 302 303 304 305 305 302 298 294 294 293 295 294
166 161 165 180 245 272 286 241 169 190 267 233 217 232 235 147 17 309 252 211 241 265 271 274 281 290 296 299 302 303 303 304 307 307 306 304 301 299 297 293 291 291 293 293
71 121 156 172 213 247 249 208 149 103 280 243 194 213 208 125 275 271 271 284 285 293 298 302 307 309 307 305 308 307 306 308 306 304 302 303 301 295 289 288 288 289 290 290
146 159 191 202 229 260 249 197 124 168 249 216 186 200 182 194 217 231 265 292 286 299 309 316 318 315 309 312 316 311 311 307 305 308 308 308 304 297 285 283 286 289 291 292
179 180 194 181 213 250 196 141 180 212 192 158 176 186 190 206 224 249 277 292 306 316 321 321 315 313 316 321 322 317 312 309 314 315 312 310 308 306 303 292 292 292 292 295
199 193 189 194 214 245 169 187 204 168 177 190 181 194 182 198 228 260 281 284 293 300 306 310 306 311 318 320 317 309 308 315 319 317 313 312 313 312 311 303 301 300 295 293
238 194 182 233 254 241 221 236 228 182 190 192 183 185 177 201 227 255 275 288 295 301 304 310 312 312 313 316 315 306 310 318 318 314 313 315 316 314 312 309 305 302 299 299
213 176 194 237 257 288 261 229 216 188 161 152 146 180 192 196 241 255 271 283 289 301 306 308 305 303 305 313 315 315 319 320 316 312 313 316 316 312 312 309 301 300 291 295
203 187 193 225 212 194 225 214 182 173 192 189 179 267 285 211 243 268 275 281 287 295 303 307 306 307 307 311 312 313 315 316 313 315 318 317 316 315 313 312 312 311 309 309
Height
1532 1537 1542 1541 1540 1540 1542 1544 1546 1546 1544 1546 1548 1549 1550 1550 1550 1551 1552 1552 1552 1552 1553 1552 1551 1550 1549 1548 1546 1545 1543 1541 1540 1538 1537 1535 1534 1533 1532 1532 1531 1530 1529 1528
1538 1542 1539 1538 1539 1539 1540 1544 1546 1546 1544 1546 1548 1549 1548 1548 1548 1548 1549 1550 1550 1550 1550 1550 1549 1548 1547 1546 1545 1543 1542 1540 1538 1537 1535 1534 1532 1531 1530 1529 1528 1527 1526 1525
1539 1541 1538 1538 1540 1540 1542 1544 1545 1546 1546 1545 1548 1549 1548 1547 1547 1548 1548 1548 1548 1548 1548 1548 1547 1546 1545 1544 1543 1542 1540 1539 1537 1536 1534 1532 1530 1528 1527 1526 1525 1524 1523 1522
1540 1539 1538 1539 1541 1540 1543 1541 1542 1544 1549 1552 1550 1555 1547 1547 1547 1546 1546 1546 1546 1546 1546 1546 1545 1545 1544 1543 1542 1540 1539 1537 1536 1534 1532 1530 1528 1526 1524 1523 1522 1521 1520 1518
1541 1540 1539 1540 1541 1540 1541 1540 1542 1544 1548 1553 1552 1555 1547 1546 1546 1544 1544 1543 1544 1544 1544 1544 1544 1544 1543 1541 1540 1538 1537 1535 1533 1532 1530 1528 1526 1524 1522 1520 1519 1517 1516 1515
1540 1539 1539 1540 1540 1539 1540 1543 1545 1550 1554 1556 1550 1554 1546 1545 1540 1539 1540 1540 1541 1542 1543 1543 1543 1542 1541 1539 1538 1536 1534 1533 1531 1529 1527 1526 1524 1521 1519 1517 1515 1514 1512 1510
1542 1541 1540 1539 1541 1541 1542 1549 1555 1554 1559 1554 1548 1549 1544 1538 1536 1536 1537 1537 1539 1540 1540 1540 1540 1539 1538 1537 1535 1534 1532 1530 1528 1527 1525 1523 1521 1518 1516 1513 1511 1510 1508 1506
1544 1545 1541 1540 1540 1543 1545 1547 1553 1555 1555 1553 1549 1548 1541 1537 1535 1534 1535 1536 1537 1538 1538 1538 1537 1537 1536 1534 1533 1531 1529 1527 1525 1524 1522 1520 1517 1515 1513 1511 1509 1506 1504 1503
1543 1542 1541 1540 1539 1541 1545 1548 1549 1556 1559 1560 1552 1547 1540 1536 1535 1535 1535 1535 1536 1536 1536 1536 1535 1534 1533 1531 1530 1528 1526 1524 1523 1520 1518 1516 1514 1512 1510 1507 1505 1503 1501 1499
1539 1543 1541 1541 1540 1541 1542 1546 1553 1555 1555 1553 1549 1546 1540 1535 1535 1534 1534 1534 1534 1534 1534 1533 1532 1531 1530 1529 1527 1526 1524 1521 1519 1517 1515 1513 1511 1508 1506 1504 1502 1499 1497 1495
1537 1543 1544 1543 1543 1542 1544 1546 1548 1555 1555 1555 1552 1541 1530 1529 1529 1531 1531 1531 1531 1531 1531 1530 1530 1529 1528 1526 1524 1522 1520 1518 1515 1513 1511 1509 1507 1505 1502 1500 1497 1495 1493 1490
1537 1543 1546 1543 1540 1540 1540 1542 1546 1551 1552 1556 1556 1542 1527 1527 1526 1527 1528 1529 1529 1529 1529 1529 1528 1526 1525 1523 1521 1519 1517 1514 1512 1509 1507 1505 1502 1500 1498 1495 1493 1490 1488 1486
1537 1543 1545 1540 1543 1543 1541 1540 1542 1545 1549 1554 1553 1539 1528 1527 1526 1527 1527 1527 1527 1527 1527 1526 1525 1523 1521 1519 1517 1515 1513 1510 1508 1505 1503 1500 1498 1495 1492 1490 1488 1485 1483 1480
1534 1540 1541 1537 1532 1536 1538 1538 1539 1542 1547 1548 1541 1531 1529 1527 1526 1526 1525 1525 1525 1525 1524 1523 1521 1520 1518 1516 1514 1512 1509 1507 1504 1501 1499 1496 1493 1490 1487 1485 1482 1480 1478 1475
1534 1539 1538 1535 1533 1533 1533 1532 1534 1535 1534 1536 1529 1529 1523 1523 1523 1523 1523 1523 1522 1522 1521 1520 1518 1516 1514 1512 1510 1508 1505 1503 1500 1497 1494 1491 1488 1485 1482 1480 1477 1475 1473 1470
1534 1538 1538 1536 1532 1533 1531 1528 1528 1528 1529 1529 1527 1525 1519 1520 1520 1520 1520 1520 1520 1519 1518 1517 1515 1513 1511 1509 1506 1504 1501 1498 1495 1492 1489 1486 1483 1480 1478 1475 1472 1469 1467 1465
1535 1538 1539 1538 1535 1531 1530 1523 1523 1525 1523 1524 1524 1520 1518 1518 1518 1518 1518 1518 1517 1516 1515 1514 1512 1510 1508 1505 1503 1500 1497 1494 1491 1488 1485 1482 1479 1476 1473 1470 1467 1464 1462 1459
1533 1536 1539 1540 1539 1537 1521 1519 1518 1520 1520 1520 1518 1517 1516 1516 1516 1516 1516 1516 1514 1514 1512 1510 1508 1506 1504 1501 1499 1496 1493 1490 1486 1483 1480 1477 1474 1471 1468 1465 1462 1459 1457 1454
1528 1532 1538 1541 1541 1530 1521 1517 1518 1520 1519 1516 1516 1515 1515 1515 1515 1514 1514 1513 1512 1511 1509 1507 1505 1503 1500 1497 1494 1491 1488 1485 1482 1478 1475 1472 1469 1466 1462 1459 1457 1454 1451 1448
1529 1531 1536 1540 1537 1528 1517 1516 1515 1518 1520 1512 1512 1512 1513 1514 1517 1514 1511 1511 1510 1508 1506 1504 1502 1499 1496 1494 1491 1487 1484 1480 1477 1474 1471 1467 1464 1460 1457 1454 1452 1449 1446 1443
1531 1533 1535 1536 1534 1522 1515 1514 1515 1522 1514 1510 1509 1509 1511 1511 1512 1511 1509 1508 1507 1505 1503 1501 1499 1496 1493 1490 1487 1483 1479 1476 1473 1470 1466 1462 1459 1455 1452 1450 1447 1444 1442 1439
1523 1528 1530 1531 1531 1521 1511 1512 1514 1510 1507 1507 1507 1508 1508 1508 1508 1507 1507 1506 1504 1502 1500 1498 1495 1492 1490 1487 1483 1479 1476 1473 1469 1466 1462 1458 1454 1451 1448 1445 1442 1440 1437 1434
1517 1515 1516 1517 1513 1507 1506 1505 1505 1506 1506 1506 1506 1506 1506 1506 1505 1505 1504 1503 1501 1500 1497 1495 1492 1489 1486 1483 1480 1476 1473 1469 1465 1461 1458 1454 1450 1447 1444 1441 1438 1435 1433 1430
1512 1511 1512 1512 1506 1504 1504 1504 1504 1504 1504 1504 1504 1504 1504 1504 1503 1502 1501 1500 1499 1497 1494 1492 1489 1486 1483 1480 1477 1473 1469 1465 1462 1458 1454 1450 1447 1443 1440 1437 1434 1431 1428 1425
1506 1508 1508 1507 1504 1503 1501 1501 1501 1502 1502 1502 1502 1502 1502 1501 1500 1500 1498 1497 1495 1493 1491 1489 1486 1482 1479 1476 1473 1470 1466 1462 1458 1454 1450 1447 1443 1439 1436 1433 1430 1427 1425 1423
1501 1502 1503 1500 1498 1499 1499 1499 1499 1499 1499 1500 1500 1499 1499 1498 1497 1496 1495 1494 1492 1490 1488 1485 1482 1479 1476 1473 1470 1467 1463 1459 1455 1451 1447 1444 1440 1436 1433 1429 1426 1423 1422 1419